SL-8 DEB, 1392

Orbit data source: Space-Track

SL-8 DEB, 1392 is space debris in LEO originally from a launch on Mon, 15 Mar 1965 UTC launched from the Tyuratam Missile And Space Complex (TTMTR). Debris objects in space refer to the collection of defunct objects orbiting the Earth. Examples of debris include non-operational satellites, rocket bodies, and fragments generated from explosions, collisions, or faulty payload assembly.

Loading next visibility...
Identifier
1392, 1965-020AH
Orbit
LEO
Country
Flag of CISCIS
Related business
Manufacturer
Unknown
Mission
Spacecraft
Bus & Motor
Unknown
Mass
Unknown
Launch date (UTC)
1965-03-15 (61 years ago)
Launch vehicle
Unknown
Launch site
Tyuratam Missile And Space Complex (TTMTR)
Object type
Payload
Rocket body
Debris
Shape & HBR
Unknown shape, 0.2 m
Radar Cross Section
Medium (>0.1 m² and <1 m²)

Expand to show TLE details & history
Last TLE update: 1 day ago

TLE from 1 day ago
0 SL-8 DEB
1 01392U 65020AH  26173.71480889  .00024759  00000-0  92122-3 0  9998
2 01392  55.8522 199.0486 0131677  68.9484 292.5569 15.19622467 96977
Epoch: 2026-06-22T17:09Z
TLE epoch observation values (Epoch: 2026-06-22T17:09:19.488Z)
Latitude
-0.00008°
Longitude
30.82059°
Altitude
474.407 km
Speed
7.648 km/s
True Right ascension
13h 16m 11s
True Declination
0° 00' 00"
Sunlit
Object was in daylight at epoch
Visualization orbit readout
Latitude
Unknown
Longitude
Unknown
Altitude
Unknown
Speed
Unknown
Apparent Right ascension
Unknown
Apparent Declination
Unknown
Sunlit
N/A
Visualization observer readout
Local Sidereal Time
11:30:37
Azimuth
Unknown
Elevation
Unknown
Doppler factor
Unknown
Orbital elements
Apogee altitude
597.469 km
Perigee altitude
416.151 km
Semi-major axis
6,884.947 km
Eccentricity
0.01317
Inclination
55.8522°
RAAN
199.0486°
Arg. of periapsis
68.9484°
True anomaly
291.15471°
Mean anomaly
292.5569°
Eccentric anomaly
291.85668°
Mean motion
3.7992 °/min
Orbital period
94.76 mins
BSTAR
0.00092122
Loading maneuver chart data...
Computing Atmospheric mass density...
Loading historical data...
Loading historical data...
Loading historical data...
Loading historical data...
Loading historical data...
Loading historical data...
Loading historical data...

Documentation

Showing up to 5 results
|